| time (UTC) | temp F | wind direction | speed MPH | gust MPH | rain 1hr in | rain 24hr in | rain mn in | humidity % | barometer mb |
| 20260906015705 | 54 | 174 | 2.0 | 7.0 | 0.00 | 0.00 | 0.00 | 88 | 1018.4 |
| 20260906015205 | 54 | 206 | 2.0 | 5.0 | 0.00 | 0.00 | 0.00 | 88 | 1018.4 |
| 20260906014206 | 54 | 205 | 2.0 | 5.0 | 0.00 | 0.00 | 0.00 | 88 | 1018.7 |
| 20260906013705 | 54 | 219 | 2.0 | 5.0 | 0.00 | 0.00 | 0.00 | 88 | 1018.8 |
| 20260906013205 | 54 | 205 | 2.0 | 4.0 | 0.00 | 0.00 | 0.00 | 88 | 1018.9 |
| 20260906012206 | 54 | 193 | 1.0 | 6.0 | 0.00 | 0.00 | 0.00 | 88 | 1019.1 |
| 20260906011705 | 54 | 227 | 2.0 | 6.0 | 0.00 | 0.00 | 0.00 | 88 | 1019.2 |
| 20260906010705 | 54 | 182 | 2.0 | 7.0 | 0.00 | 0.00 | 0.00 | 88 | 1019.1 |
| 20260906010205 | 54 | 200 | 3.0 | 8.0 | 0.00 | 0.00 | 0.00 | 88 | 1019.1 |
| 20260906005704 | 54 | 195 | 3.0 | 8.0 | 0.00 | 0.00 | 0.00 | 88 | 1019.1 |
| 20260906005205 | 54 | 211 | 3.0 | 8.0 | 0.00 | 0.00 | 0.00 | 88 | 1019.3 |
| 20260906004705 | 55 | 207 | 3.0 | 7.0 | 0.00 | 0.00 | 0.00 | 88 | 1019.3 |
| 20260906004205 | 54 | 213 | 4.0 | 7.0 | 0.00 | 0.00 | 0.00 | 87 | 1019.3 |
| 20260906003205 | 54 | 202 | 3.0 | 7.0 | 0.00 | 0.00 | 0.00 | 87 | 1019.5 |
| 20260906002206 | 55 | 211 | 2.0 | 5.0 | 0.00 | 0.00 | 0.00 | 87 | 1019.7 |
| 20260906001705 | 55 | 205 | 2.0 | 6.0 | 0.00 | 0.00 | 0.00 | 87 | 1019.6 |
| 20260906001205 | 54 | 160 | 3.0 | 6.0 | 0.00 | 0.00 | 0.00 | 87 | 1019.6 |
| 20260906000705 | 54 | 207 | 3.0 | 6.0 | 0.00 | 0.00 | 0.00 | 87 | 1019.6 |
| 20260906000205 | 54 | 169 | 3.0 | 6.0 | 0.00 | 0.00 | 0.00 | 87 | 1019.8 |
| 20260905235704 | 54 | 173 | 3.0 | 6.0 | 0.00 | 0.00 | 0.00 | 87 | 1019.9 |
| 20260905235205 | 54 | 171 | 2.0 | 6.0 | 0.00 | 0.00 | 0.00 | 87 | 1019.9 |
| 20260905234705 | 54 | 186 | 2.0 | 6.0 | 0.00 | 0.00 | 0.00 | 87 | 1020.0 |
| 20260905234208 | 54 | 175 | 2.0 | 5.0 | 0.00 | 0.00 | 0.00 | 87 | 1020.0 |
| 20260905232705 | 55 | 184 | 1.0 | 5.0 | 0.00 | 0.00 | 0.00 | 87 | 1020.2 |
| 20260905232206 | 55 | 198 | 2.0 | 6.0 | 0.00 | 0.00 | 0.00 | 87 | 1020.3 |
| 20260905231705 | 55 | 175 | 2.0 | 6.0 | 0.00 | 0.00 | 0.00 | 87 | 1020.4 |
| 20260905231205 | 55 | 167 | 2.0 | 7.0 | 0.00 | 0.00 | 0.00 | 86 | 1020.3 |
| 20260905230705 | 55 | 186 | 3.0 | 7.0 | 0.00 | 0.00 | 0.00 | 86 | 1020.4 |
| 20260905230205 | 55 | 196 | 3.0 | 6.0 | 0.00 | 0.00 | 0.00 | 86 | 1020.4 |
| 20260905225705 | 55 | 200 | 2.0 | 5.0 | 0.00 | 0.00 | 0.00 | 86 | 1020.4 |
| 20260905224705 | 55 | 184 | 2.0 | 4.0 | 0.00 | 0.00 | 0.00 | 87 | 1020.4 |
| 20260905224205 | 56 | 198 | 1.0 | 5.0 | 0.00 | 0.00 | 0.00 | 87 | 1020.6 |
| 20260905223705 | 55 | 202 | 1.0 | 5.0 | 0.00 | 0.00 | 0.00 | 87 | 1020.6 |
| 20260905223205 | 55 | 178 | 1.0 | 5.0 | 0.00 | 0.00 | 0.00 | 87 | 1020.6 |
| 20260905222704 | 55 | 186 | 1.0 | 4.0 | 0.00 | 0.00 | 0.00 | 87 | 1020.7 |
| 20260905222205 | 55 | 172 | 2.0 | 4.0 | 0.00 | 0.00 | 0.00 | 87 | 1020.6 |
| 20260905221709 | 56 | 190 | 2.0 | 4.0 | 0.00 | 0.00 | 0.00 | 87 | 1020.7 |
| 20260905221205 | 56 | 210 | 1.0 | 3.0 | 0.00 | 0.00 | 0.00 | 87 | 1020.7 |
| 20260905215705 | 56 | 229 | 1.0 | 5.0 | 0.00 | 0.00 | 0.00 | 86 | 1020.8 |
| 20260905215205 | 56 | 217 | 1.0 | 5.0 | 0.00 | 0.00 | 0.00 | 86 | 1020.8 |
| 20260905214705 | 56 | 218 | 2.0 | 6.0 | 0.00 | 0.00 | 0.00 | 86 | 1020.7 |
| 20260905214205 | 56 | 0 | 2.0 | 6.0 | 0.00 | 0.00 | 0.00 | 86 | 1020.7 |
| 20260905213705 | 56 | 209 | 2.0 | 6.0 | 0.00 | 0.00 | 0.00 | 86 | 1020.6 |
| 20260905213205 | 56 | 216 | 2.0 | 6.0 | 0.00 | 0.00 | 0.00 | 86 | 1020.7 |
| 20260905212705 | 56 | 221 | 2.0 | 6.0 | 0.00 | 0.00 | 0.00 | 86 | 1020.5 |
| 20260905212205 | 56 | 227 | 2.0 | 6.0 | 0.00 | 0.00 | 0.00 | 86 | 1020.5 |
| 20260905211704 | 56 | 223 | 2.0 | 4.0 | 0.00 | 0.00 | 0.00 | 86 | 1020.6 |
| 20260905211204 | 56 | 215 | 2.0 | 4.0 | 0.00 | 0.00 | 0.00 | 86 | 1020.7 |
| 20260905210705 | 56 | 222 | 1.0 | 5.0 | 0.00 | 0.00 | 0.00 | 86 | 1020.7 |
| 20260905210205 | 56 | 182 | 2.0 | 5.0 | 0.00 | 0.00 | 0.00 | 86 | 1020.6 |
| 20260905205705 | 56 | 205 | 2.0 | 5.0 | 0.00 | 0.00 | 0.00 | 86 | 1020.6 |
| 20260905205205 | 56 | 210 | 2.0 | 6.0 | 0.00 | 0.00 | 0.00 | 85 | 1020.5 |
| 20260905204205 | 56 | 219 | 3.0 | 8.0 | 0.00 | 0.00 | 0.00 | 85 | 1020.7 |
| 20260905203704 | 56 | 0 | 3.0 | 8.0 | 0.00 | 0.00 | 0.00 | 85 | 1020.7 |
| 20260905203205 | 56 | 228 | 2.0 | 8.0 | 0.00 | 0.00 | 0.00 | 85 | 1020.7 |
| 20260905202705 | 56 | 236 | 2.0 | 8.0 | 0.00 | 0.00 | 0.00 | 84 | 1020.7 |
| 20260905202206 | 56 | 232 | 2.0 | 7.0 | 0.00 | 0.00 | 0.00 | 84 | 1020.6 |
| 20260905201705 | 56 | 219 | 2.0 | 7.0 | 0.00 | 0.00 | 0.00 | 84 | 1020.6 |
| 20260905201205 | 56 | 211 | 3.0 | 6.0 | 0.00 | 0.00 | 0.00 | 83 | 1020.6 |
| 20260905200705 | 56 | 201 | 2.0 | 5.0 | 0.00 | 0.00 | 0.00 | 83 | 1020.6 |
| 20260905200226 | 56 | 185 | 2.0 | 5.0 | 0.00 | 0.00 | 0.00 | 82 | 1020.5 |
| 20260905195206 | 56 | 234 | 1.0 | 3.0 | 0.00 | 0.00 | 0.00 | 82 | 1020.6 |
| 20260905194705 | 56 | 226 | 0.0 | 4.0 | 0.00 | 0.00 | 0.00 | 81 | 1020.7 |
| 20260905193705 | 56 | 216 | 1.0 | 4.0 | 0.00 | 0.00 | 0.00 | 81 | 1020.7 |
| 20260905193205 | 56 | 224 | 1.0 | 4.0 | 0.00 | 0.00 | 0.00 | 81 | 1020.7 |
| 20260905192705 | 56 | 229 | 2.0 | 4.0 | 0.00 | 0.00 | 0.00 | 80 | 1020.5 |
| 20260905192205 | 56 | 218 | 1.0 | 4.0 | 0.00 | 0.00 | 0.00 | 80 | 1020.5 |
| 20260905191704 | 56 | 217 | 1.0 | 7.0 | 0.00 | 0.00 | 0.00 | 80 | 1020.5 |
| 20260905191205 | 56 | 226 | 1.0 | 9.0 | 0.00 | 0.00 | 0.00 | 80 | 1020.5 |
| 20260905190704 | 57 | 222 | 2.0 | 9.0 | 0.00 | 0.00 | 0.00 | 79 | 1020.4 |
| 20260905190206 | 57 | 212 | 2.0 | 9.0 | 0.00 | 0.00 | 0.00 | 79 | 1020.5 |
| 20260905185705 | 57 | 234 | 1.0 | 5.0 | 0.00 | 0.00 | 0.00 | 79 | 1020.4 |
| 20260905184705 | 57 | 219 | 1.0 | 8.0 | 0.00 | 0.00 | 0.00 | 78 | 1020.3 |
| 20260905184204 | 57 | 261 | 2.0 | 8.0 | 0.00 | 0.00 | 0.00 | 78 | 1020.3 |
| 20260905183705 | 57 | 275 | 2.0 | 8.0 | 0.00 | 0.00 | 0.00 | 78 | 1020.2 |
| 20260905182705 | 58 | 256 | 2.0 | 8.0 | 0.00 | 0.00 | 0.00 | 78 | 1020.2 |
| 20260905182206 | 58 | 206 | 2.0 | 8.0 | 0.00 | 0.00 | 0.00 | 78 | 1020.2 |
| 20260905181705 | 58 | 211 | 2.0 | 8.0 | 0.00 | 0.00 | 0.00 | 77 | 1020.2 |
| 20260905180205 | 58 | 219 | 2.0 | 8.0 | 0.00 | 0.00 | 0.00 | 77 | 1020.1 |
| 20260905175705 | 58 | 244 | 3.0 | 8.0 | 0.00 | 0.00 | 0.00 | 77 | 1020.1 |
| 20260905175205 | 58 | 224 | 3.0 | 8.0 | 0.00 | 0.00 | 0.00 | 77 | 1020.1 |
| 20260905174704 | 58 | 213 | 2.0 | 9.0 | 0.00 | 0.00 | 0.00 | 77 | 1020.1 |
| 20260905174205 | 58 | 245 | 3.0 | 9.0 | 0.00 | 0.00 | 0.00 | 76 | 1020.0 |
| 20260905172705 | 59 | 220 | 3.0 | 11.0 | 0.00 | 0.00 | 0.00 | 76 | 1019.8 |
| 20260905171705 | 59 | 205 | 3.0 | 11.0 | 0.00 | 0.00 | 0.00 | 76 | 1019.6 |
| 20260905171205 | 59 | 190 | 3.0 | 8.0 | 0.00 | 0.00 | 0.00 | 76 | 1019.6 |
| 20260905170705 | 60 | 244 | 3.0 | 10.0 | 0.00 | 0.00 | 0.00 | 76 | 1019.7 |
| 20260905165704 | 60 | 215 | 3.0 | 11.0 | 0.00 | 0.00 | 0.00 | 75 | 1019.5 |
| 20260905165205 | 60 | 229 | 3.0 | 15.0 | 0.00 | 0.00 | 0.00 | 74 | 1019.5 |
| 20260905164205 | 60 | 265 | 4.0 | 15.0 | 0.00 | 0.00 | 0.00 | 73 | 1019.4 |
| 20260905162705 | 61 | 257 | 4.0 | 9.0 | 0.00 | 0.00 | 0.00 | 72 | 1019.4 |
| 20260905162205 | 61 | 224 | 4.0 | 13.0 | 0.00 | 0.00 | 0.00 | 72 | 1019.3 |
| 20260905161705 | 61 | 282 | 4.0 | 13.0 | 0.00 | 0.00 | 0.00 | 71 | 1019.3 |
| 20260905160704 | 61 | 237 | 5.0 | 12.0 | 0.00 | 0.00 | 0.00 | 70 | 1019.2 |
| 20260905160205 | 61 | 270 | 5.0 | 12.0 | 0.00 | 0.00 | 0.00 | 71 | 1019.2 |
| 20260905155705 | 61 | 299 | 5.0 | 11.0 | 0.00 | 0.00 | 0.00 | 71 | 1019.1 |
| 20260905154705 | 61 | 274 | 5.0 | 11.0 | 0.00 | 0.00 | 0.00 | 71 | 1019.2 |
| 20260905154205 | 62 | 209 | 5.0 | 13.0 | 0.00 | 0.00 | 0.00 | 69 | 1019.2 |
| 20260905153705 | 62 | 207 | 5.0 | 13.0 | 0.00 | 0.00 | 0.00 | 69 | 1019.2 |
| 20260905153205 | 62 | 256 | 5.0 | 13.0 | 0.00 | 0.00 | 0.00 | 69 | 1019.1 |
| 20260905152705 | 63 | 211 | 5.0 | 11.0 | 0.00 | 0.00 | 0.00 | 69 | 1019.0 |
| 20260905152205 | 63 | 244 | 5.0 | 14.0 | 0.00 | 0.00 | 0.00 | 69 | 1018.9 |
| 20260905151705 | 63 | 261 | 5.0 | 18.0 | 0.00 | 0.00 | 0.00 | 69 | 1018.9 |
| 20260905151205 | 63 | 207 | 5.0 | 18.0 | 0.00 | 0.00 | 0.00 | 69 | 1018.8 |
| 20260905150705 | 63 | 258 | 6.0 | 18.0 | 0.00 | 0.00 | 0.00 | 68 | 1018.8 |
| 20260905150205 | 63 | 240 | 6.0 | 17.0 | 0.00 | 0.00 | 0.00 | 68 | 1018.8 |
| 20260905145705 | 63 | 235 | 5.0 | 13.0 | 0.00 | 0.00 | 0.00 | 68 | 1018.7 |
| 20260905144705 | 63 | 278 | 5.0 | 15.0 | 0.00 | 0.00 | 0.00 | 69 | 1018.8 |
| 20260905144205 | 63 | 300 | 6.0 | 15.0 | 0.00 | 0.00 | 0.00 | 69 | 1018.9 |
| 20260905143705 | 63 | 258 | 6.0 | 15.0 | 0.00 | 0.00 | 0.00 | 70 | 1018.8 |
| 20260905143205 | 63 | 271 | 7.0 | 15.0 | 0.00 | 0.00 | 0.00 | 69 | 1018.9 |
| 20260905142705 | 63 | 303 | 7.0 | 15.0 | 0.00 | 0.00 | 0.00 | 69 | 1018.9 |
| 20260905142206 | 63 | 211 | 7.0 | 15.0 | 0.00 | 0.00 | 0.00 | 69 | 1018.9 |
| 20260905141705 | 63 | 275 | 7.0 | 15.0 | 0.00 | 0.00 | 0.00 | 70 | 1018.9 |
| 20260905140732 | 62 | 289 | 5.0 | 14.0 | 0.00 | 0.00 | 0.00 | 71 | 1018.8 |
| 20260905140205 | 62 | 228 | 5.0 | 14.0 | 0.00 | 0.00 | 0.00 | 72 | 1018.9 |
| 20260905135705 | 62 | 263 | 4.0 | 14.0 | 0.00 | 0.00 | 0.00 | 72 | 1018.9 |
| 20260905135206 | 62 | 286 | 5.0 | 14.0 | 0.00 | 0.00 | 0.00 | 72 | 1018.9 |
| 20260905134704 | 62 | 269 | 5.0 | 14.0 | 0.00 | 0.00 | 0.00 | 72 | 1018.8 |
| 20260905134205 | 62 | 232 | 5.0 | 15.0 | 0.00 | 0.00 | 0.00 | 73 | 1018.9 |
| 20260905133704 | 62 | 244 | 6.0 | 15.0 | 0.00 | 0.00 | 0.00 | 73 | 1018.8 |
| 20260905133208 | 61 | 267 | 5.0 | 13.0 | 0.00 | 0.00 | 0.00 | 73 | 1018.9 |
| 20260905132704 | 61 | 225 | 4.0 | 13.0 | 0.00 | 0.00 | 0.00 | 73 | 1018.9 |
| 20260905132205 | 61 | 240 | 4.0 | 17.0 | 0.00 | 0.00 | 0.00 | 73 | 1018.9 |
| 20260905131704 | 61 | 196 | 6.0 | 17.0 | 0.00 | 0.00 | 0.00 | 72 | 1018.8 |
| 20260905131205 | 61 | 286 | 7.0 | 17.0 | 0.00 | 0.00 | 0.00 | 71 | 1018.8 |
| 20260905130705 | 61 | 274 | 6.0 | 17.0 | 0.00 | 0.00 | 0.00 | 71 | 1018.8 |
| 20260905130205 | 61 | 263 | 6.0 | 17.0 | 0.00 | 0.00 | 0.00 | 71 | 1018.8 |
| 20260905125704 | 61 | 257 | 8.0 | 17.0 | 0.00 | 0.00 | 0.00 | 70 | 1018.8 |
| 20260905124705 | 61 | 323 | 6.0 | 18.0 | 0.00 | 0.00 | 0.00 | 69 | 1018.5 |
| 20260905124206 | 61 | 296 | 6.0 | 18.0 | 0.00 | 0.00 | 0.00 | 69 | 1018.5 |
| 20260905123705 | 61 | 288 | 6.0 | 18.0 | 0.00 | 0.00 | 0.00 | 68 | 1018.6 |
| 20260905123204 | 62 | 260 | 6.0 | 16.0 | 0.00 | 0.00 | 0.00 | 67 | 1018.4 |
| 20260905122705 | 62 | 205 | 6.0 | 15.0 | 0.00 | 0.00 | 0.00 | 66 | 1018.3 |
| 20260905122206 | 63 | 242 | 5.0 | 14.0 | 0.00 | 0.00 | 0.00 | 63 | 1018.2 |
| 20260905121205 | 64 | 235 | 5.0 | 15.0 | 0.00 | 0.00 | 0.00 | 64 | 1018.2 |
| 20260905120707 | 64 | 289 | 6.0 | 16.0 | 0.00 | 0.00 | 0.00 | 65 | 1018.1 |
| 20260905115206 | 64 | 275 | 7.0 | 16.0 | 0.00 | 0.00 | 0.00 | 64 | 1018.0 |
| 20260905114704 | 64 | 264 | 7.0 | 16.0 | 0.00 | 0.00 | 0.00 | 62 | 1017.9 |
| 20260905114205 | 64 | 272 | 7.0 | 14.0 | 0.00 | 0.00 | 0.00 | 63 | 1017.9 |
| 20260905113705 | 65 | 291 | 7.0 | 14.0 | 0.00 | 0.00 | 0.00 | 66 | 1017.8 |
| 20260905113204 | 64 | 255 | 6.0 | 14.0 | 0.00 | 0.00 | 0.00 | 65 | 1017.8 |
| 20260905112206 | 63 | 283 | 6.0 | 17.0 | 0.00 | 0.00 | 0.00 | 68 | 1017.6 |
| 20260905111705 | 62 | 244 | 7.0 | 17.0 | 0.00 | 0.00 | 0.00 | 67 | 1017.6 |
| 20260905111205 | 62 | 250 | 8.0 | 15.0 | 0.00 | 0.00 | 0.00 | 67 | 1017.5 |
| 20260905110707 | 63 | 256 | 7.0 | 15.0 | 0.00 | 0.00 | 0.00 | 65 | 1017.6 |
| 20260905105705 | 63 | 206 | 6.0 | 14.0 | 0.00 | 0.01 | 0.00 | 68 | 1017.5 |
| 20260905105209 | 64 | 296 | 6.0 | 13.0 | 0.00 | 0.01 | 0.00 | 66 | 1017.5 |
| 20260905104705 | 63 | 269 | 5.0 | 13.0 | 0.00 | 0.01 | 0.00 | 65 | 1017.4 |
| 20260905104205 | 64 | 224 | 6.0 | 13.0 | 0.00 | 0.01 | 0.00 | 66 | 1017.4 |
| 20260905103705 | 62 | 273 | 7.0 | 16.0 | 0.00 | 0.01 | 0.00 | 68 | 1017.4 |
| 20260905103205 | 62 | 250 | 7.0 | 17.0 | 0.00 | 0.01 | 0.00 | 66 | 1017.2 |
| 20260905102705 | 62 | 247 | 8.0 | 17.0 | 0.00 | 0.01 | 0.00 | 67 | 1017.1 |
| 20260905102206 | 62 | 256 | 8.0 | 18.0 | 0.00 | 0.01 | 0.00 | 67 | 1017.0 |
| 20260905101705 | 60 | 284 | 8.0 | 18.0 | 0.00 | 0.01 | 0.00 | 67 | 1016.9 |
| 20260905101205 | 61 | 274 | 7.0 | 17.0 | 0.00 | 0.01 | 0.00 | 68 | 1016.9 |
| 20260905100705 | 61 | 217 | 7.0 | 21.0 | 0.00 | 0.01 | 0.00 | 68 | 1016.8 |
| 20260905100205 | 61 | 259 | 8.0 | 21.0 | 0.00 | 0.01 | 0.00 | 68 | 1016.8 |
| 20260905095705 | 60 | 232 | 7.0 | 21.0 | 0.00 | 0.01 | 0.00 | 69 | 1016.8 |
| 20260905095205 | 59 | 293 | 5.0 | 15.0 | 0.00 | 0.01 | 0.00 | 73 | 1016.8 |
| 20260905094705 | 58 | 256 | 6.0 | 15.0 | 0.00 | 0.01 | 0.00 | 74 | 1016.7 |
| 20260905094205 | 57 | 236 | 7.0 | 15.0 | 0.00 | 0.01 | 0.00 | 74 | 1016.5 |
| 20260905093705 | 57 | 258 | 6.0 | 18.0 | 0.00 | 0.01 | 0.00 | 74 | 1016.6 |
| 20260905093226 | 57 | 248 | 7.0 | 18.0 | 0.00 | 0.01 | 0.00 | 74 | 1016.6 |
| 20260905092705 | 57 | 252 | 8.0 | 18.0 | 0.00 | 0.01 | 0.00 | 75 | 1016.4 |
| 20260905092206 | 57 | 290 | 8.0 | 19.0 | 0.00 | 0.01 | 0.00 | 75 | 1016.4 |
| 20260905091705 | 56 | 234 | 8.0 | 19.0 | 0.00 | 0.01 | 0.00 | 77 | 1016.4 |
| 20260905091205 | 56 | 279 | 6.0 | 19.0 | 0.00 | 0.01 | 0.00 | 78 | 1016.2 |
| 20260905090705 | 56 | 273 | 6.0 | 15.0 | 0.00 | 0.01 | 0.00 | 80 | 1016.1 |
| 20260905090205 | 56 | 255 | 6.0 | 14.0 | 0.00 | 0.01 | 0.00 | 80 | 1016.1 |
| 20260905085705 | 56 | 277 | 5.0 | 13.0 | 0.00 | 0.01 | 0.00 | 81 | 1015.9 |
| 20260905085205 | 56 | 284 | 5.0 | 13.0 | 0.00 | 0.01 | 0.00 | 81 | 1015.9 |
| 20260905084705 | 56 | 229 | 5.0 | 15.0 | 0.00 | 0.01 | 0.00 | 82 | 1015.8 |
| 20260905084205 | 56 | 263 | 5.0 | 15.0 | 0.00 | 0.01 | 0.00 | 82 | 1015.7 |
| 20260905083205 | 55 | 263 | 6.0 | 15.0 | 0.00 | 0.01 | 0.00 | 82 | 1015.5 |
| 20260905082705 | 55 | 237 | 6.0 | 15.0 | 0.00 | 0.01 | 0.00 | 82 | 1015.4 |
| 20260905082231 | 55 | 275 | 6.0 | 15.0 | 0.00 | 0.01 | 0.00 | 82 | 1015.3 |
| 20260905081705 | 55 | 231 | 6.0 | 16.0 | 0.00 | 0.01 | 0.00 | 82 | 1015.1 |
| 20260905075705 | 55 | 245 | 6.0 | 15.0 | 0.00 | 0.01 | 0.00 | 82 | 1014.8 |
| 20260905075206 | 55 | 252 | 6.0 | 15.0 | 0.00 | 0.01 | 0.00 | 82 | 1014.8 |
| 20260905074705 | 55 | 215 | 6.0 | 15.0 | 0.00 | 0.01 | 0.00 | 82 | 1014.8 |
| 20260905073705 | 55 | 272 | 6.0 | 18.0 | 0.00 | 0.01 | 0.00 | 82 | 1014.8 |
| 20260905073206 | 55 | 239 | 6.0 | 18.0 | 0.00 | 0.01 | 0.00 | 82 | 1014.8 |
| 20260905072705 | 55 | 236 | 6.0 | 18.0 | 0.00 | 0.01 | 0.00 | 82 | 1014.8 |
| 20260905072205 | 55 | 223 | 6.0 | 16.0 | 0.00 | 0.01 | 0.00 | 82 | 1014.7 |
| 20260905071705 | 55 | 212 | 6.0 | 16.0 | 0.00 | 0.01 | 0.00 | 83 | 1014.6 |
| 20260905071206 | 55 | 212 | 6.0 | 15.0 | 0.00 | 0.01 | 0.00 | 83 | 1014.5 |
| 20260905070705 | 54 | 250 | 6.0 | 17.0 | 0.00 | 0.01 | 0.00 | 84 | 1014.4 |
| 20260905065705 | 53 | 252 | 7.0 | 15.0 | 0.00 | 0.01 | 0.00 | 85 | 1014.3 |
| 20260905064731 | 52 | 261 | 7.0 | 15.0 | 0.00 | 0.01 | 0.00 | 86 | 1014.1 |
| 20260905064205 | 51 | 207 | 6.0 | 12.0 | 0.00 | 0.01 | 0.00 | 86 | 1014.0 |
| 20260905063205 | 51 | 226 | 5.0 | 12.0 | 0.00 | 0.01 | 0.00 | 86 | 1013.6 |
| 20260905062707 | 51 | 211 | 6.0 | 12.0 | 0.00 | 0.01 | 0.00 | 86 | 1013.5 |
| 20260905062205 | 51 | 235 | 6.0 | 15.0 | 0.00 | 0.01 | 0.00 | 86 | 1013.5 |
| 20260905061704 | 51 | 269 | 7.0 | 18.0 | 0.00 | 0.01 | 0.00 | 87 | 1013.4 |
| 20260905061205 | 51 | 278 | 8.0 | 18.0 | 0.00 | 0.01 | 0.00 | 87 | 1013.2 |
| 20260905060205 | 51 | 215 | 7.0 | 15.0 | 0.00 | 0.01 | 0.00 | 87 | 1013.0 |
| 20260905055705 | 51 | 219 | 7.0 | 15.0 | 0.00 | 0.01 | 0.00 | 87 | 1012.9 |
| 20260905055205 | 51 | 215 | 7.0 | 15.0 | 0.00 | 0.01 | 0.00 | 87 | 1012.9 |
| 20260905054705 | 51 | 252 | 7.0 | 15.0 | 0.00 | 0.01 | 0.00 | 87 | 1013.0 |
| 20260905054205 | 51 | 196 | 6.0 | 17.0 | 0.00 | 0.01 | 0.00 | 87 | 1013.0 |
| 20260905053705 | 51 | 263 | 7.0 | 17.0 | 0.00 | 0.01 | 0.00 | 87 | 1013.1 |
| 20260905053205 | 51 | 207 | 8.0 | 17.0 | 0.00 | 0.01 | 0.00 | 87 | 1013.0 |
| 20260905052705 | 51 | 201 | 7.0 | 15.0 | 0.00 | 0.01 | 0.00 | 87 | 1012.8 |
| 20260905052206 | 51 | 202 | 6.0 | 15.0 | 0.00 | 0.01 | 0.00 | 86 | 1012.8 |
| 20260905051705 | 51 | 212 | 6.0 | 11.0 | 0.00 | 0.01 | 0.00 | 86 | 1012.7 |
| 20260905051205 | 51 | 224 | 6.0 | 11.0 | 0.00 | 0.01 | 0.00 | 86 | 1012.8 |
| 20260905050704 | 51 | 206 | 6.0 | 11.0 | 0.00 | 0.01 | 0.00 | 86 | 1012.7 |
| 20260905050206 | 51 | 205 | 6.0 | 11.0 | 0.00 | 0.01 | 0.00 | 85 | 1012.7 |
| 20260905045705 | 51 | 219 | 5.0 | 12.0 | 0.00 | 0.01 | 0.00 | 85 | 1012.5 |
| 20260905044705 | 51 | 234 | 6.0 | 15.0 | 0.00 | 0.01 | 0.00 | 85 | 1012.4 |
| 20260905044204 | 51 | 239 | 7.0 | 15.0 | 0.00 | 0.01 | 0.00 | 85 | 1012.2 |
| 20260905043706 | 51 | 225 | 8.0 | 15.0 | 0.00 | 0.01 | 0.00 | 85 | 1012.2 |
| 20260905043205 | 51 | 234 | 7.0 | 15.0 | 0.00 | 0.01 | 0.00 | 86 | 1012.1 |
| 20260905042705 | 51 | 222 | 7.0 | 13.0 | 0.00 | 0.01 | 0.00 | 86 | 1012.1 |
| 20260905041705 | 51 | 221 | 7.0 | 16.0 | 0.00 | 0.01 | 0.00 | 86 | 1011.9 |
| 20260905040705 | 51 | 213 | 8.0 | 16.0 | 0.00 | 0.01 | 0.00 | 86 | 1011.8 |
| 20260905040204 | 51 | 222 | 7.0 | 13.0 | 0.00 | 0.01 | 0.00 | 85 | 1011.6 |
| 20260905035206 | 51 | 244 | 7.0 | 15.0 | 0.00 | 0.01 | 0.00 | 86 | 1011.6 |
| 20260905034705 | 52 | 243 | 7.0 | 18.0 | 0.00 | 0.01 | 0.00 | 86 | 1011.5 |
| 20260905034205 | 52 | 204 | 9.0 | 19.0 | 0.00 | 0.01 | 0.00 | 86 | 1011.4 |
| 20260905033704 | 51 | 211 | 9.0 | 19.0 | 0.00 | 0.02 | 0.00 | 86 | 1011.4 |
| 20260905033205 | 51 | 260 | 8.0 | 19.0 | 0.00 | 0.02 | 0.00 | 87 | 1011.3 |
| 20260905032704 | 51 | 214 | 7.0 | 17.0 | 0.00 | 0.02 | 0.00 | 87 | 1011.2 |
| 20260905032205 | 51 | 215 | 7.0 | 16.0 | 0.00 | 0.02 | 0.00 | 87 | 1011.3 |
| 20260905031705 | 51 | 194 | 7.0 | 14.0 | 0.00 | 0.02 | 0.00 | 87 | 1011.2 |
| 20260905031206 | 51 | 194 | 6.0 | 14.0 | 0.00 | 0.02 | 0.00 | 87 | 1011.1 |
| 20260905030220 | 51 | 211 | 7.0 | 16.0 | 0.00 | 0.02 | 0.00 | 87 | 1010.9 |
| 20260905025705 | 51 | 217 | 8.0 | 16.0 | 0.00 | 0.02 | 0.00 | 87 | 1010.8 |
| 20260905024205 | 51 | 216 | 7.0 | 12.0 | 0.00 | 0.02 | 0.00 | 86 | 1010.5 |
| 20260905023706 | 51 | 232 | 5.0 | 15.0 | 0.00 | 0.02 | 0.00 | 86 | 1010.4 |
| 20260905023204 | 51 | 237 | 5.0 | 15.0 | 0.00 | 0.02 | 0.00 | 86 | 1010.3 |
| 20260905022706 | 51 | 239 | 5.0 | 13.0 | 0.00 | 0.02 | 0.00 | 86 | 1010.2 |
| 20260905021705 | 51 | 283 | 6.0 | 13.0 | 0.00 | 0.02 | 0.00 | 87 | 1010.1 |
| 20260905021205 | 51 | 296 | 6.0 | 13.0 | 0.00 | 0.02 | 0.00 | 87 | 1010.1 |
| 20260905020704 | 51 | 255 | 6.0 | 13.0 | 0.00 | 0.02 | 0.00 | 87 | 1010.1 |
| 20260905020206 | 51 | 293 | 5.0 | 13.0 | 0.00 | 0.02 | 0.00 | 87 | 1010.0 |